Home > Weather > Pematangsiantar > Past weeks

Flag for Indonesia Weather for the Past 2 Weeks in Pematangsiantar, Sumatera, Indonesia

Now
90 °F

Scattered clouds.


Feels Like: 103 °F
Forecast: 72 / 87 °F
Wind: 5 mph from North

Location: Medan / Polonia

Current Time: May 2, 2016 at 11:23:18 AM

Latest Report: May 2, 2016 at 10:30 AM


Visibility: N/A

Pressure: 29.83 "Hg

Humidity: 67%

Dew Point: 77 °F

Location of PematangsiantarLocation

Historic Weather in Pematangsiantar — Graph

°F

Pematangsiantar Temperature Yesterday

Maximum temperature yesterday: 93 °F (at 11:00 AM)
Minimum temperature yesterday: 77 °F (at 6:00 AM)
Average temperature yesterday: 85 °F

High & Low Weather Summary for the Past Weeks

 TemperatureHumidityPressure
High99 °F (Apr 22, 12:00 PM)100% (Apr 18, 4:00 AM)29.86 "Hg (Apr 18, 4:00 AM)
Low75 °F (Apr 24, 6:00 AM)50% (Apr 22, 1:00 PM)29.68 "Hg (Apr 23, 4:00 PM)
Average84 °F81%29.79 "Hg
* Reported Apr 17 10:00 AM — May 2 10:00 AM, Pematangsiantar, Weather by CustomWeather, © 2016

Note: Actual official high and low records may vary slightly from our data, if they occured in-between our weather recording intervals... More about our weather records

Advertising

Pematangsiantar Weather History for the Previous 24 Hours

Scroll right to see more
 ConditionsComfort  
Time TempWeatherWind HumidityBarometerVisibility
10:00 AM
Mon, May 2
88 °FScattered clouds.No wind70%29.86 "Hg6 mi
9:00 AM86 °FScattered clouds.3 mph79%29.86 "Hg5 mi
8:30 AM84 °FScattered clouds.5 mph79%29.83 "Hg4 mi
8:00 AM82 °FScattered clouds.5 mph84%29.83 "Hg3 mi
7:30 AM82 °FScattered clouds.6 mph89%29.80 "Hg2 mi
7:00 AM81 °FScattered clouds.5 mph89%29.80 "Hg2 mi
6:30 AM79 °FFog.3 mph94%29.80 "Hg2 mi
5:30 AM81 °FWarm.6 mph89%29.77 "HgN/A
5:00 AM81 °FWarm.3 mph94%29.74 "Hg5 mi
4:30 AM81 °FWarm.3 mph89%29.74 "Hg6 mi
4:00 AM79 °FWarm.5 mph100%29.74 "Hg5 mi
3:00 AM81 °FPassing clouds.3 mph94%29.74 "Hg4 mi
2:00 AM81 °FPassing clouds.5 mph94%29.77 "Hg4 mi
1:30 AM81 °FPassing clouds.3 mph100%29.77 "Hg3 mi
1:00 AM82 °FPassing clouds.No wind94%29.77 "Hg3 mi
12:30 AM82 °FPassing clouds.3 mph94%29.80 "Hg3 mi
12:00 AM82 °FPassing clouds.5 mph94%29.80 "Hg3 mi
11:30 PM
Sun, May 1
82 °FPassing clouds.3 mph94%29.80 "Hg3 mi
11:00 PM82 °FPassing clouds.3 mph94%29.80 "Hg4 mi
10:30 PM84 °FPassing clouds.3 mph89%29.80 "Hg4 mi
10:00 PM84 °FPassing clouds.3 mph89%29.80 "Hg4 mi
9:00 PM84 °FPassing clouds.3 mph84%29.77 "Hg5 mi
8:30 PM86 °FPassing clouds.3 mph79%29.77 "Hg4 mi
8:00 PM86 °FPassing clouds.5 mph79%29.77 "HgN/A
7:00 PM86 °FPassing clouds.7 mph79%29.74 "HgN/A
6:30 PM86 °FPassing clouds.8 mph79%29.74 "HgN/A
6:00 PM88 °FScattered clouds.9 mph75%29.74 "HgN/A
5:30 PM88 °FScattered clouds.9 mph75%29.71 "HgN/A
5:00 PM88 °FScattered clouds.9 mph75%29.71 "HgN/A
4:30 PM90 °FScattered clouds.12 mph71%29.71 "HgN/A
4:00 PM90 °FScattered clouds.13 mph71%29.71 "HgN/A
3:00 PM91 °FScattered clouds.17 mph63%29.74 "HgN/A
2:30 PM93 °FScattered clouds.12 mph53%29.74 "HgN/A
2:00 PM93 °FScattered clouds.14 mph53%29.74 "HgN/A
1:00 PM91 °FScattered clouds.15 mph56%29.77 "HgN/A
12:00 PM93 °FPartly sunny.12 mph53%29.80 "HgN/A
11:00 AM93 °FScattered clouds.10 mph53%29.83 "HgN/A
Weather by CustomWeather, © 2016

See weather overviewHow to use our weather pages